Theta_e
354 361 363 363 363 364 364 365 365 364 363 362 362 362 361 360 361 362 362 362 363 363 358 357 356 357 356 355 354 354 355 355 355 355 354 354 352 351 350 350 349 346 349
358 361 360 363 363 363 363 363 363 363 363 363 363 362 361 361 362 362 362 362 362 359 356 355 355 355 355 355 355 354 353 354 354 354 354 353 354 350 349 348 347 347 348
358 362 359 362 363 363 362 362 362 362 362 362 362 362 361 362 362 362 361 361 359 356 353 353 354 354 354 355 355 354 354 353 353 352 352 352 350 349 347 348 348 347 347
359 360 358 362 362 362 361 360 360 361 361 361 361 361 361 361 361 360 360 359 357 355 352 353 354 355 354 354 355 355 355 355 353 351 350 347 347 350 348 348 349 348 347
359 359 360 361 361 361 360 360 360 360 360 361 361 361 361 361 360 360 360 360 357 353 352 354 355 356 354 353 354 354 354 354 354 353 352 352 350 349 350 349 348 348 347
357 358 361 361 361 361 361 360 359 359 359 360 360 360 360 360 359 359 359 358 356 353 353 354 356 356 356 354 355 355 353 351 348 345 344 346 352 354 351 351 350 346 347
356 358 359 361 361 361 360 359 359 359 358 359 360 359 359 359 359 359 358 357 356 355 354 354 356 357 357 356 354 354 351 347 343 339 340 346 346 349 353 352 353 350 348
356 358 357 360 360 360 360 359 358 357 358 358 358 358 359 359 358 358 357 356 355 355 355 354 355 355 355 354 354 352 350 345 339 339 338 342 351 349 352 355 354 352 349
357 358 357 356 359 360 359 358 357 357 357 358 358 358 359 358 358 358 357 355 354 354 353 353 353 353 353 352 352 351 348 344 339 336 334 338 349 349 351 356 354 352 351
356 356 355 356 353 355 357 359 358 357 357 357 357 357 358 357 357 356 355 354 352 351 350 350 350 350 351 350 349 347 344 342 335 336 336 337 338 345 351 356 356 355 352
352 355 355 352 354 353 353 356 357 357 357 357 357 357 354 351 352 353 353 352 353 352 350 348 348 348 348 347 346 345 342 335 335 334 334 340 339 341 349 356 358 357 354
348 352 354 354 353 353 350 355 355 354 354 354 354 356 353 354 353 351 352 353 352 353 353 351 350 349 345 337 337 339 333 335 336 336 335 342 342 343 348 356 358 358 356
348 351 353 356 356 353 350 353 354 353 355 356 357 358 357 354 354 353 352 351 352 352 349 349 347 344 341 340 337 337 336 336 333 333 336 343 345 344 347 352 359 359 357
347 350 353 356 357 356 353 353 353 352 354 354 355 358 356 353 354 353 352 352 353 350 349 349 345 346 345 344 342 339 338 337 334 334 336 342 345 346 346 352 355 359 359
346 349 352 355 356 357 357 355 355 354 354 355 356 356 356 353 353 353 353 353 353 352 351 349 348 346 344 343 341 339 337 338 337 335 335 342 345 347 348 349 355 359 360
350 349 351 354 357 357 357 358 356 357 356 356 356 354 353 354 355 353 352 352 352 352 352 351 350 349 346 344 341 340 339 339 338 337 333 334 342 345 349 351 353 360 361
351 354 353 353 356 357 357 358 356 356 356 355 355 354 353 352 354 356 353 352 353 354 354 352 351 350 347 346 344 344 342 341 339 340 339 337 338 344 347 351 354 356 359
338 349 355 353 353 355 356 356 355 355 356 355 354 354 354 355 355 356 354 352 353 352 351 350 349 347 346 345 344 344 342 343 343 342 342 341 339 342 346 348 353 354 355
326 334 345 354 353 354 355 354 355 356 355 354 355 355 356 356 356 356 353 354 356 352 351 348 348 347 345 345 343 341 341 342 343 341 343 343 342 341 342 346 347 350 352
323 333 343 346 352 353 352 352 353 353 353 353 352 352 353 353 352 353 353 354 353 351 350 350 348 348 345 344 342 341 343 343 342 342 342 340 341 342 345 347 347 346 348
324 334 341 346 350 349 347 347 348 348 351 352 355 356 355 355 352 352 351 351 351 349 350 350 347 345 344 346 340 342 343 345 344 341 339 340 343 343 345 346 347 347 346
328 338 343 347 349 348 347 348 347 347 349 351 351 347 346 345 347 347 348 345 346 345 347 347 345 343 342 345 339 339 333 337 339 341 340 341 344 342 342 344 345 348 349
330 338 343 347 349 349 348 340 340 340 338 333 337 335 337 339 341 343 341 342 344 344 340 344 343 339 338 341 343 338 332 327 335 338 339 339 342 340 340 341 343 343 349
327 336 343 345 347 344 341 339 341 336 330 328 329 332 334 337 338 340 340 341 342 342 342 340 339 340 339 335 340 338 343 340 330 327 335 336 338 337 339 337 337 341 344
323 331 338 341 341 341 340 339 336 332 328 328 329 333 336 338 338 338 340 341 341 339 341 342 341 341 341 338 336 335 336 338 339 332 327 330 334 335 336 336 336 335 338
320 327 333 335 334 334 333 333 335 333 331 327 327 329 330 333 336 338 337 339 339 336 336 336 338 340 338 336 337 337 332 329 329 329 327 329 329 333 334 335 336 335 336
Wind_Speed
12 16 15 14 12 12 13 15 16 17 17 16 16 17 17 17 16 14 13 12 10 10 11 11 12 12 12 12 12 12 12 11 10 9 7 7 7 7 6 7 7 7 7
17 17 17 14 12 12 14 15 16 17 17 17 17 17 17 17 16 14 12 11 10 11 11 11 11 12 12 12 12 11 11 10 9 8 6 6 6 5 6 6 4 8 6
18 17 17 14 14 12 12 16 16 16 17 17 17 17 17 16 15 13 12 11 11 11 11 11 12 12 12 11 11 11 10 9 8 6 5 3 5 4 4 5 5 6 5
18 17 17 16 15 14 12 14 16 16 16 16 16 16 15 14 14 13 12 11 11 11 11 11 12 11 10 10 10 9 9 8 7 6 5 3 3 6 5 5 5 5 5
18 17 17 18 17 16 14 13 14 15 15 16 16 15 14 13 12 11 10 9 10 10 10 11 11 10 9 9 8 7 7 6 5 7 4 4 4 7 7 7 7 7 5
16 16 18 18 18 18 18 17 16 15 15 15 15 15 14 14 12 10 10 9 9 10 11 11 10 9 9 9 7 6 5 5 5 5 5 4 7 4 8 7 5 5 6
16 14 17 15 16 17 17 17 17 17 16 15 15 14 13 12 11 11 10 9 9 9 10 10 9 7 7 7 7 6 5 5 7 5 5 5 7 6 9 9 8 7 7
16 15 15 14 13 14 15 15 16 16 15 14 14 13 12 11 9 9 8 8 6 5 5 6 5 4 4 4 4 4 5 6 6 6 6 6 2 9 10 9 8 8 8
14 14 13 15 14 14 15 15 15 15 15 14 12 11 10 10 9 8 7 7 7 6 4 4 3 3 4 4 4 4 5 7 9 5 7 5 2 8 10 10 10 10 10
13 13 14 13 14 13 13 14 15 15 15 14 13 11 10 9 8 7 5 5 3 2 2 1 2 3 5 5 5 4 5 7 8 6 5 4 6 7 11 10 11 11 11
11 12 12 13 13 13 12 12 12 13 12 11 11 10 9 8 9 9 6 6 7 5 2 3 3 4 4 7 6 5 6 4 5 4 4 5 9 10 12 13 13 13 13
15 14 12 12 12 12 10 11 11 10 10 10 9 10 8 7 6 6 5 7 7 7 8 7 7 7 7 5 4 6 5 6 5 5 5 7 10 11 11 14 14 14 13
13 12 13 12 12 13 10 9 7 6 7 7 10 9 8 6 6 6 5 5 6 7 5 7 7 7 7 6 5 5 7 6 5 5 6 8 11 12 13 13 14 14 14
14 13 14 13 12 12 9 9 9 8 8 7 9 10 7 6 7 6 5 5 5 4 5 6 5 6 7 9 9 9 8 7 6 5 6 9 10 13 12 14 14 14 15
13 14 15 15 14 12 12 9 9 8 8 9 8 9 8 8 7 6 6 6 6 5 6 6 7 7 8 9 9 9 9 7 10 6 6 8 10 12 12 13 16 16 16
14 16 16 18 17 15 13 13 9 8 8 8 8 7 10 7 7 7 7 7 7 7 7 6 7 7 7 8 9 9 10 9 9 9 7 7 10 11 11 12 14 16 16
16 15 17 17 16 17 16 13 10 9 9 8 7 8 9 9 9 10 7 8 8 7 8 8 8 7 8 8 9 8 8 9 10 11 9 7 7 10 10 10 13 15 15
10 13 14 13 15 15 14 12 9 9 9 8 7 7 10 10 9 8 7 7 7 6 7 7 7 7 8 7 8 8 8 8 10 10 10 8 7 8 7 10 11 13 12
12 10 13 14 15 16 13 10 10 11 9 8 7 7 10 10 8 11 6 7 7 7 6 7 8 7 7 7 7 8 9 8 8 8 11 9 8 9 7 8 11 13 15
9 8 8 10 12 13 10 10 8 8 7 7 6 6 8 7 9 8 7 7 6 7 7 7 8 7 8 8 8 10 8 8 8 9 9 7 8 8 8 9 7 7 13
10 10 12 12 12 11 10 9 8 9 7 6 5 7 7 6 7 8 7 7 6 7 8 8 8 9 9 7 7 8 9 11 12 9 8 8 9 8 7 6 6 6 6
10 12 11 13 13 11 9 7 5 8 5 5 5 6 6 7 6 6 5 4 4 4 6 7 8 7 7 6 6 6 6 5 7 9 8 9 10 8 11 12 9 9 8
11 12 12 12 12 11 9 7 7 8 7 5 7 5 5 5 5 5 4 3 3 4 4 6 7 8 8 6 11 7 4 6 2 5 11 10 10 10 10 8 10 11 8
13 13 13 10 11 10 13 10 11 8 9 6 6 5 5 5 5 5 4 4 3 2 4 4 5 6 6 7 4 9 14 9 6 8 5 8 9 12 11 11 10 10 10
9 10 9 9 9 11 11 12 9 10 7 8 6 8 5 6 7 7 7 5 4 4 4 5 5 6 7 6 6 4 6 8 11 10 12 10 7 9 10 10 8 7 9
6 8 8 10 10 12 11 12 12 12 10 9 8 7 6 6 6 7 7 6 5 5 5 5 5 6 6 6 6 6 6 4 4 7 9 13 13 12 10 9 10 9 10
Wind_Direction
159 151 149 159 156 142 135 131 130 128 131 135 137 134 128 125 128 132 136 134 130 125 121 119 117 115 116 115 115 118 121 122 121 121 126 136 122 126 125 123 142 119 118
150 148 156 154 155 145 138 131 126 127 130 133 132 128 126 128 133 136 140 141 138 134 131 128 122 120 123 126 128 128 128 131 133 135 130 152 157 143 149 142 144 108 123
149 149 157 153 151 150 144 134 129 129 130 130 129 128 130 134 137 139 144 145 144 142 139 138 135 133 132 134 136 136 134 139 148 150 143 124 129 171 162 158 146 133 134
148 152 155 154 153 152 148 136 131 131 130 129 127 130 133 138 140 143 146 147 150 150 147 146 145 143 142 142 142 145 147 153 159 160 185 168 177 161 183 177 162 149 149
156 158 155 155 155 152 149 140 131 130 130 129 131 135 138 139 139 143 147 149 153 151 152 154 153 150 152 154 154 155 161 168 181 210 219 214 217 154 198 192 177 171 178
157 160 152 156 158 156 154 151 144 140 138 137 140 142 144 144 144 147 150 156 160 162 165 165 162 161 162 164 170 178 184 196 223 243 250 241 243 143 205 207 207 188 179
159 163 159 159 160 156 157 154 148 146 145 145 146 148 149 150 152 156 161 167 171 171 174 174 171 171 175 179 190 198 207 226 257 271 275 271 240 195 213 217 215 211 198
161 163 160 158 160 159 159 156 151 148 149 151 151 152 152 155 160 165 168 171 177 180 183 182 182 188 192 208 221 238 259 271 261 289 291 297 241 204 216 220 225 229 226
164 165 165 170 170 167 162 159 157 154 155 155 154 154 157 162 168 174 176 177 184 183 188 192 208 215 224 237 250 270 289 299 294 297 299 298 136 219 223 220 225 228 232
171 175 171 174 176 179 172 166 162 159 158 158 159 162 163 168 174 181 185 195 209 213 204 228 262 282 273 259 261 270 285 285 272 294 285 294 310 274 253 241 233 226 226
181 184 182 180 181 183 179 173 165 164 160 160 166 168 168 194 192 191 194 171 183 183 221 205 242 239 267 278 284 277 282 260 272 267 269 270 270 269 260 226 222 221 226
189 190 189 189 188 184 182 178 182 177 183 184 185 185 199 197 204 218 211 208 203 203 183 195 207 235 235 250 264 253 255 256 252 270 271 250 259 263 256 236 227 226 222
194 194 197 193 191 194 189 183 183 185 183 188 191 193 199 198 198 206 209 210 219 205 228 212 215 219 246 255 228 251 273 263 262 252 254 252 258 264 266 252 238 229 226
198 202 196 201 197 199 198 196 189 192 188 188 197 197 200 205 208 218 222 223 224 220 225 232 238 247 236 246 257 253 242 270 267 262 268 251 259 261 257 264 251 232 227
205 204 202 200 202 200 203 203 204 203 196 195 196 201 214 218 216 218 225 230 236 224 227 236 244 239 245 246 244 249 262 256 267 271 272 267 255 253 259 260 258 227 224
210 211 204 205 202 199 205 204 202 202 198 200 196 201 211 222 220 223 225 232 239 245 247 247 246 258 257 264 258 253 260 267 268 269 269 275 251 262 256 258 258 237 227
215 214 208 205 201 205 205 202 203 199 199 201 198 204 206 207 221 227 227 235 240 243 248 251 252 250 256 257 262 263 258 260 270 272 269 264 266 237 244 244 239 238 236
223 217 210 203 202 206 207 202 204 197 196 201 194 198 201 208 210 235 231 239 241 238 241 243 252 256 256 257 271 261 254 251 256 263 265 264 261 267 242 228 233 239 232
211 207 207 203 203 204 202 202 201 204 209 205 204 207 208 208 211 232 241 251 249 247 245 245 244 243 260 261 265 269 259 252 254 257 259 258 255 261 270 257 231 233 226
223 218 220 203 200 193 188 191 198 201 203 205 207 209 204 210 216 225 238 244 244 249 250 252 264 258 267 270 264 268 266 263 254 249 254 250 240 244 250 258 268 259 233
212 213 215 201 188 176 185 184 192 194 182 180 183 192 193 203 207 213 232 240 239 245 254 254 257 259 261 251 266 262 263 251 246 242 228 218 207 199 205 237 247 253 251
229 212 206 210 184 184 186 180 174 163 160 150 146 135 156 165 166 182 200 211 227 236 244 252 247 252 254 238 250 276 277 227 239 234 221 225 228 200 193 188 215 237 244
224 222 218 207 188 177 168 142 111 110 113 139 150 155 157 154 162 171 169 185 205 228 258 261 255 244 253 242 231 242 237 253 280 203 232 238 242 248 257 255 229 234 235
221 206 212 205 190 165 159 150 151 152 156 159 165 162 165 173 169 169 182 186 204 230 242 246 255 261 258 257 236 238 254 276 272 272 226 244 248 254 255 250 244 244 253
245 227 214 188 178 165 160 152 148 149 152 149 159 164 175 177 192 193 192 189 210 233 238 250 257 253 253 252 246 257 250 256 259 264 270 265 249 251 264 272 279 274 248
260 214 188 165 148 151 156 159 157 156 155 161 167 169 180 186 193 200 190 192 204 223 238 255 268 262 260 265 268 261 247 243 252 257 261 270 278 284 286 279 265 259 264